User: anonymous   Login
Location: St. Malo Provincial Park
(49.3214°N, 96.9305°W)
Time: 04:32:52
(UTC-05:00)
Language:

Iridium 6 - Orbit

View from above orbital plane
View from above orbital plane
View from above satellite
View from above satellite

Ground track
Ground track

The orbit data is extracted from the following two-line orbital elements,

1 24794U 97020C   14296.25550257  .00000681  00000-0  23610-3 0  8334
2 24794 086.3993 003.4730 0002132 109.5580 250.5846 14.34222355914464
Epoch (UTC): 23 October 2014 06:07:55
Eccentricity: 0.0002132
inclination: 86.3993°
perigee height: 776 km
apogee height: 779 km
right ascension of ascending node: 3.4730°
argument of perigee: 109.5580°
revolutions per day: 14.34222355
mean anomaly at epoch: 250.5846°
orbit number at epoch: 91446

The dashed part of the orbit path shows where the satellite is in the earth's shadow,  

DLR